Weather in Puy-de-D么me

France     45掳46鈥19鈥砃   3掳05鈥00鈥矱
temp.,
掳C
wind,
m/s
gust,
m/s
humid.,
%
clouds,
%
prec.,
mm/h
press.,
hPa
HPBL,
m
12 april, mon
mon1223:00+1nnw2596100 0.1 1023371
02:00+1nnw1498100 0.6 1025298
05:00鈭1n269899 0.5 1027357
08:00鈭1n3695100 0.9 1028525
11:00+1n468074 0.1 10291011
14:00+6nne46415 0.2 10281825
17:00+6nne574190 0.0 10272026
20:00+3n486015 0.0 1028704
13 april, tue
tue1323:00鈭1nw22791 0.0 103146
02:00鈭2nw11830 0.0 103112
05:00鈭3nw11855 0.0 103111
08:00鈭1nw11785 0.0 103156
11:00+4ne356069 0.0 10301084
14:00+7nne45526 0.1 10281371
17:00+7ne45444 0.0 10271393
20:00+4nne386226 0.0 1027574
14 april, wed
wed1423:00鈭1nne11776 0.0 102919
02:00鈭2nw01885 0.0 102921
05:00鈭4sw01921 0.0 102814
08:00鈭2ne12785 0.0 102871
11:00+4ene36510 0.0 1027828
14:00+7ne56340 0.0 10251398
17:00+8ne56353 0.0 10241647
20:00+4ne36572 0.0 1024258
15 april, thu
thu1523:00鈭1n127954 0.0 102729
02:00鈭2nnw11914 0.0 102726
05:00鈭3n11935 0.0 102613
08:00鈭2nne01844 0.0 102661
11:00+4ne46545 0.0 1025923
14:00+8ne55395 0.0 10231510
17:00+8ne443922 0.0 10211674
20:00+4nne26552 0.0 1021224
16 april, fri
fri1623:000n128053 0.0 102330
02:00鈭2w01854 0.0 102214
05:00鈭3ssw01925 0.0 102110
08:00鈭2ene118256 0.0 102056
11:00+5ene335451 0.0 1019738
14:00+7ne4448100 0.0 10171542
17:00+7nne5745100 0.0 10161757
20:00+5ne4863100 0.1 1018907